CW0639 Weather Reports


Display with metric or nautical units.
time (UTC)temp
F
wind
direction
speed
MPH
gust
MPH
rain 1hr
in
rain 24hr
in
rain mn
in
humidity
%
barometer
mb
20190420220318 68 236 6.0 14.0 0.00 0.09 0.00 52 1011.4
20190420214822 68 268 7.0 23.0 0.00 0.09 0.00 51 1011.4
20190420213330 68 186 6.0 15.0 0.00 0.09 0.00 51 1011.4
20190420211826 68 240 8.0 16.0 0.00 0.09 0.00 51 1011.4
20190420210321 68 206 10.0 20.0 0.00 0.09 0.00 48 1011.3
20190420204825 69 236 7.0 19.0 0.00 0.09 0.00 46 1011.1
20190420203322 69 305 7.0 18.0 0.00 0.09 0.00 46 1011.2
20190420201826 71 251 8.0 15.0 0.00 0.09 0.00 45 1011.2
20190420200314 71 162 6.0 19.0 0.00 0.09 0.00 43 1011.2
20190420194817 72 257 5.0 18.0 0.00 0.14 0.00 44 1011.3
20190420193324 70 232 9.0 21.0 0.00 0.14 0.00 42 1011.3
20190420191828 71 242 6.0 17.0 0.00 0.14 0.00 41 1011.7
20190420190316 71 242 5.0 19.0 0.00 0.14 0.00 42 1011.9
20190420184819 70 169 7.0 18.0 0.00 0.29 0.00 40 1012.0
20190420183327 70 346 4.0 19.0 0.00 0.29 0.00 40 1012.2
20190420181820 71 169 8.0 20.0 0.00 0.29 0.00 38 1012.2
20190420180327 71 249 8.0 19.0 0.00 0.29 0.00 41 1012.5
20190420174830 71 261 7.0 22.0 0.00 0.40 0.00 41 1012.6
20190420173317 71 250 4.0 12.0 0.00 0.40 0.00 43 1012.6
20190420171821 70 246 8.0 18.0 0.00 0.40 0.00 41 1012.8
20190420170325 69 277 5.0 13.0 0.00 0.40 0.00 44 1013.0
20190420164813 69 209 4.0 13.0 0.00 0.82 0.00 45 1013.0
20190420163316 68 259 11.0 18.0 0.00 0.82 0.00 46 1013.3
20190420161822 67 297 6.0 15.0 0.00 0.82 0.00 49 1013.4
20190420160324 66 276 8.0 17.0 0.00 0.82 0.00 46 1013.5
20190420154832 66 217 7.0 18.0 0.00 0.82 0.00 50 1013.4
20190420153315 65 206 7.0 18.0 0.00 0.82 0.00 52 1013.4
20190420151823 65 267 6.0 18.0 0.00 0.82 0.00 56 1013.2
20190420150326 64 213 8.0 19.0 0.00 0.82 0.00 61 1013.2
20190420144813 63 165 10.0 17.0 0.00 0.82 0.00 62 1013.1
20190420143316 62 243 5.0 17.0 0.00 0.82 0.00 67 1013.1
20190420141824 61 200 6.0 16.0 0.00 0.82 0.00 69 1012.7
20190420140327 59 280 3.0 9.0 0.00 0.82 0.00 75 1012.6
20190420134814 58 198 3.0 15.0 0.00 0.82 0.00 74 1012.4
20190420133317 58 165 6.0 12.0 0.00 0.82 0.00 73 1012.3
20190420131824 58 243 3.0 8.0 0.00 0.82 0.00 75 1012.0
20190420130328 58 246 2.0 8.0 0.00 0.82 0.00 77 1011.9
20190420124815 57 238 2.0 8.0 0.00 0.83 0.00 79 1011.7
20190420123319 57 242 2.0 6.0 0.00 0.83 0.00 82 1011.4
20190420121814 56 225 2.0 6.0 0.00 0.83 0.00 85 1011.3
20190420120318 55 220 3.0 6.0 0.00 0.83 0.00 87 1011.1
20190420114825 54 178 3.0 7.0 0.00 0.83 0.00 88 1010.8
20190420113329 54 196 1.0 5.0 0.00 0.83 0.00 89 1010.8
20190420111817 54 182 1.0 4.0 0.00 0.83 0.00 90 1010.5
20190420110321 54 189 1.0 3.0 0.00 0.83 0.00 90 1010.2
20190420104824 54 248 1.0 3.0 0.00 0.83 0.00 89 1010.1
20190420103312 54 237 1.0 7.0 0.00 0.83 0.00 88 1009.9
20190420101816 55 187 3.0 5.0 0.00 0.83 0.00 87 1009.7
20190420100313 55 165 3.0 6.0 0.00 0.83 0.00 87 1009.5
20190420094816 55 191 3.0 6.0 0.00 0.83 0.00 87 1009.2
20190420093323 55 190 2.0 5.0 0.00 0.83 0.00 87 1009.3
20190420090315 55 192 1.0 4.0 0.00 0.83 0.00 88 1009.3
20190420084819 55 220 2.0 5.0 0.00 0.83 0.00 89 1009.0
20190420083327 55 193 0.0 2.0 0.00 0.83 0.00 88 1008.8
20190420081830 56 236 1.0 2.0 0.00 0.83 0.00 87 1008.8
20190420080317 56 233 2.0 3.0 0.00 0.83 0.00 86 1008.8
20190420074821 56 229 1.0 3.0 0.00 0.89 0.00 86 1008.6
20190420073328 57 245 2.0 7.0 0.00 0.89 0.00 85 1008.7
20190420071812 57 219 3.0 5.0 0.00 0.89 0.00 83 1008.9
20190420070320 58 204 3.0 7.0 0.00 0.89 0.00 83 1008.9
20190420064823 58 243 1.0 5.0 0.00 0.89 0.00 82 1008.9
20190420063331 58 235 3.0 6.0 0.00 0.89 0.00 81 1009.0
20190420061815 59 269 2.0 7.0 0.00 0.89 0.00 80 1009.0
20190420060322 59 235 3.0 8.0 0.00 0.89 0.00 79 1009.2
20190420054814 60 176 3.0 9.0 0.00 0.89 0.00 77 1009.3
20190420053322 60 244 2.0 9.0 0.00 0.89 0.00 77 1009.4
20190420051825 61 243 3.0 10.0 0.00 0.89 0.00 76 1009.4
20190420050313 61 200 3.0 9.0 0.00 0.89 0.00 75 1009.4
20190420044817 61 277 3.0 8.0 0.00 0.89 0.00 74 1009.3
20190420043321 62 285 3.0 10.0 0.00 0.89 0.00 74 1009.3
20190420041828 62 227 3.0 10.0 0.00 0.89 0.00 76 1009.3
20190420040331 61 185 4.0 10.0 0.00 0.89 0.00 78 1009.2
20190420034819 61 188 2.0 7.0 0.00 0.89 0.89 79 1009.1
20190420033322 61 248 2.0 7.0 0.00 0.89 0.89 78 1008.9
20190420031830 62 200 3.0 9.0 0.00 0.89 0.89 77 1008.5
20190420030313 62 229 4.0 9.0 0.00 0.89 0.89 77 1008.2
20190420024830 62 239 4.0 15.0 0.00 0.89 0.89 77 1007.8
20190420023313 63 164 5.0 12.0 0.00 0.89 0.89 76 1007.4
20190420021821 63 258 4.0 16.0 0.00 0.89 0.89 77 1007.3
20190420020325 63 165 5.0 9.0 0.00 0.89 0.89 78 1007.0
20190420014812 63 192 4.0 8.0 0.00 0.89 0.89 77 1006.9
20190420013316 64 258 4.0 11.0 0.00 0.89 0.89 77 1006.7
20190420011823 64 262 5.0 12.0 0.00 0.89 0.89 76 1006.5
20190420010327 65 238 3.0 8.0 0.00 0.89 0.89 77 1006.4
20190420004815 65 198 3.0 12.0 0.00 0.89 0.89 76 1006.0
20190420003327 65 177 5.0 16.0 0.00 0.89 0.89 78 1005.7
20190420001815 65 210 3.0 8.0 0.00 0.89 0.89 80 1005.2
20190420000318 66 207 3.0 10.0 0.00 0.89 0.89 78 1004.9
20190419234826 67 196 5.0 14.0 0.00 0.89 0.89 80 1004.6
20190419233329 67 202 5.0 9.0 0.00 0.89 0.89 85 1004.4
20190419231817 67 267 6.0 15.0 0.00 0.89 0.89 85 1004.2
20190419230321 67 261 5.0 11.0 0.09 0.89 0.89 87 1004.0
20190419224822 67 191 4.0 13.0 0.09 0.89 0.89 88 1004.0
20190419223330 67 263 7.0 19.0 0.09 0.89 0.89 88 1003.9
20190419221828 68 224 5.0 15.0 0.09 0.89 0.89 89 1003.7